User: anonymous   Login
Location: Barrio Las Umbrías
(40.4173°N, 4.8685°W)
Time: 07:29:07
(UTC+00:00)
Language:

Cosmos 1812 - Orbit

View from above orbital plane
View from above orbital plane
View from above satellite
View from above satellite

Ground track
Ground track

The orbit data is extracted from the following two-line orbital elements,

1 17295U 87003A   22339.97151339  .00004656  00000-0  21980-3 0  9993
2 17295  82.5112 335.7210 0004569  64.9288 295.2420 15.19200681961583
Epoch (UTC): 05 December 2022 23:18:58
Eccentricity: 0.0004569
inclination: 82.5112°
perigee height: 505 km
apogee height: 511 km
right ascension of ascending node: 335.7210°
argument of perigee: 64.9288°
revolutions per day: 15.19200681
mean anomaly at epoch: 295.2420°
orbit number at epoch: 96158

The dashed part of the orbit path shows where the satellite is in the earth's shadow,  

DLR